Date String (YYYY-MM-DD hh:mm:ss) UTC,Instrument flags,Ambient pressure (hPa),Sample flow (lpm),Bypass flow (lpm),Sample temperature (°C),Ambient temperature (°C),ASC tube jacket temperature (°C),LED temperature (°C),Box temperature (°C),Sample RH (%),Span deviation,Mass concentration (μg/m³),Mass concentration (μg/m³),Mass concentration (μg/m³)
DateTimeUTC,F1_M11,P_M11,Q1_M11,Q2_M11,T1_M11,T2_M11,T3_M11,T4_M11,T5_M11,U1_M11,ZSPAN_M11,X0_M11,X2_M11,X1_M11
2022-07-16 09:00:00,,0830.9,5.01,0.00,31.1,27.6,00.0,39.5,32.0,34.8,0000.0,0008.91,0005.17,0004.49
2022-07-16 09:01:00,,0830.9,4.99,0.00,30.9,27.6,00.0,39.5,31.9,35.0,0000.0,0008.90,0005.18,0004.48
2022-07-16 09:02:00,,0830.9,5.00,0.00,30.9,27.8,00.0,39.5,32.0,35.1,0000.0,0008.70,0005.11,0004.45
2022-07-16 09:03:00,,0830.9,5.01,0.00,31.1,27.9,00.0,39.5,32.1,34.7,0000.0,0008.90,0005.09,0004.42
2022-07-16 09:04:00,,0830.9,4.99,0.00,31.2,28.1,00.0,39.4,32.1,34.4,0000.0,0009.08,0005.03,0004.39
2022-07-16 09:05:00,,0830.9,4.99,0.00,31.2,28.2,00.0,39.4,32.1,34.2,0000.0,0009.27,0004.97,0004.35
2022-07-16 09:06:00,,0830.9,5.01,0.00,31.3,28.3,00.0,39.5,32.1,34.2,0000.0,0009.40,0004.96,0004.31
2022-07-16 09:07:00,,0830.9,5.00,0.00,31.3,28.4,00.0,39.5,32.1,34.1,0000.0,0009.46,0004.95,0004.29
2022-07-16 09:08:00,,0830.9,4.99,0.00,31.2,28.5,00.0,39.5,32.1,34.1,0000.0,0009.32,0004.91,0004.26
2022-07-16 09:09:00,,0830.9,5.00,0.00,31.2,28.6,00.0,39.5,32.2,34.2,0000.0,0009.36,0004.89,0004.22
2022-07-16 09:10:00,,0830.9,5.00,0.00,31.2,28.7,00.0,39.6,32.2,34.2,0000.0,0009.47,0004.88,0004.19
2022-07-16 09:11:00,,0830.9,5.00,0.00,31.2,28.8,00.0,39.6,32.2,34.3,0000.0,0009.23,0004.79,0004.16
2022-07-16 09:12:00,,0831.0,4.99,0.00,31.2,28.9,00.0,39.6,32.3,34.3,0000.0,0009.26,0004.74,0004.14
2022-07-16 09:13:00,,0830.9,5.01,0.00,31.2,28.8,00.0,39.6,32.3,34.3,0000.0,0010.02,0004.78,0004.15
2022-07-16 09:14:00,,0831.0,4.99,0.00,31.2,28.2,00.0,39.5,32.2,34.3,0000.0,0009.92,0004.77,0004.15
2022-07-16 09:15:00,,0830.9,5.01,0.00,31.1,27.7,00.0,39.5,32.2,34.4,0000.0,0009.83,0004.80,0004.16
2022-07-16 09:16:00,,0830.9,4.99,0.00,31.0,27.6,00.0,39.5,32.0,34.5,0000.0,0009.72,0004.84,0004.18
2022-07-16 09:17:00,,0830.9,5.01,0.00,30.9,27.7,00.0,39.5,31.9,34.8,0000.0,0009.60,0004.85,0004.21
2022-07-16 09:18:00,,0830.8,5.00,0.00,30.8,27.8,00.0,39.4,31.9,35.0,0000.0,0009.47,0004.81,0004.21
2022-07-16 09:19:00,,0830.8,4.99,0.00,30.9,27.9,00.0,39.4,32.0,34.9,0000.0,0009.54,0004.83,0004.21
2022-07-16 09:20:00,,0830.7,5.00,0.00,31.0,28.0,00.0,39.4,32.1,34.6,0000.0,0009.69,0004.86,0004.22
2022-07-16 09:21:00,,0830.8,5.02,0.00,31.1,28.2,00.0,39.4,32.1,34.4,0000.0,0009.55,0004.85,0004.22
2022-07-16 09:22:00,,0830.7,5.00,0.00,31.1,28.3,00.0,39.4,32.1,34.3,0000.0,0009.55,0004.84,0004.20
2022-07-16 09:23:00,,0830.8,5.00,0.00,31.1,28.4,00.0,39.4,32.1,34.3,0000.0,0009.53,0004.83,0004.19
2022-07-16 09:24:00,,0830.8,5.00,0.00,31.1,28.5,00.0,39.4,32.1,34.3,0000.0,0008.76,0004.80,0004.16
2022-07-16 09:25:00,,0830.8,4.99,0.00,31.1,28.6,00.0,39.4,32.1,34.3,0000.0,0008.57,0004.76,0004.13
2022-07-16 09:26:00,,0830.9,5.00,0.00,31.1,28.7,00.0,39.5,32.2,34.3,0000.0,0008.22,0004.71,0004.09
2022-07-16 09:27:00,,0830.8,4.99,0.00,31.1,28.8,00.0,39.5,32.2,34.3,0000.0,0007.96,0004.64,0004.06
2022-07-16 09:28:00,,0830.9,5.01,0.00,31.0,28.8,00.0,39.5,32.2,34.3,0000.0,0007.91,0004.59,0004.02
2022-07-16 09:29:00,,0830.9,5.00,0.00,31.0,28.9,00.0,39.5,32.2,34.3,0000.0,0008.01,0004.61,0004.00
2022-07-16 09:30:00,,0831.0,5.00,0.00,31.0,29.0,00.0,39.5,32.3,34.3,0000.0,0007.97,0004.59,0003.99
2022-07-16 09:31:00,,0830.9,4.99,0.00,31.0,28.7,00.0,39.5,32.3,34.8,0000.0,0007.78,0004.56,0003.99
2022-07-16 09:32:00,,0830.9,5.01,0.00,31.1,28.1,00.0,39.4,32.2,34.9,0000.0,0007.78,0004.57,0004.00
2022-07-16 09:33:00,,0830.9,5.00,0.00,31.1,27.7,00.0,39.4,32.2,34.4,0000.0,0007.93,0004.61,0004.01
2022-07-16 09:34:00,,0830.9,5.01,0.00,31.1,27.7,00.0,39.4,32.0,34.3,0000.0,0007.99,0004.63,0004.01
2022-07-16 09:35:00,,0830.9,4.99,0.00,31.0,27.7,00.0,39.4,32.0,34.3,0000.0,0008.11,0004.66,0004.00
2022-07-16 09:36:00,,0830.9,5.00,0.00,31.0,27.9,00.0,39.4,32.0,34.5,0000.0,0008.25,0004.69,0003.99
2022-07-16 09:37:00,,0830.9,5.02,0.00,30.9,28.0,00.0,39.4,32.0,34.5,0000.0,0008.28,0004.70,0003.99
2022-07-16 09:38:00,,0830.9,4.99,0.00,30.9,28.1,00.0,39.4,32.0,34.6,0000.0,0008.30,0004.70,0003.98
2022-07-16 09:39:00,,0830.9,5.00,0.00,30.9,28.3,00.0,39.4,32.0,34.6,0000.0,0008.23,0004.69,0003.98
2022-07-16 09:40:00,,0830.9,4.99,0.00,30.8,28.4,00.0,39.4,32.0,34.7,0000.0,0008.19,0004.69,0003.98
2022-07-16 09:41:00,,0830.9,5.00,0.00,30.8,28.5,00.0,39.4,32.0,34.7,0000.0,0008.19,0004.69,0003.98
2022-07-16 09:42:00,,0830.9,5.00,0.00,30.8,28.6,00.0,39.4,32.1,34.8,0000.0,0008.22,0004.68,0003.97
2022-07-16 09:43:00,,0830.9,5.01,0.00,30.8,28.7,00.0,39.4,32.1,34.8,0000.0,0008.23,0004.69,0003.95
2022-07-16 09:44:00,,0830.9,5.00,0.00,30.8,28.8,00.0,39.4,32.1,34.8,0000.0,0008.35,0004.69,0003.93
2022-07-16 09:45:00,,0830.9,4.98,0.00,30.8,28.9,00.0,39.4,32.2,34.8,0000.0,0008.32,0004.69,0003.94
2022-07-16 09:46:00,,0830.9,4.99,0.00,30.8,28.9,00.0,39.4,32.2,34.8,0000.0,0008.21,0004.66,0003.96
2022-07-16 09:47:00,,0831.0,5.00,0.00,30.8,28.9,00.0,39.4,32.2,34.8,0000.0,0008.07,0004.64,0003.98
2022-07-16 09:48:00,,0831.0,5.00,0.00,30.8,28.4,00.0,39.3,32.2,34.8,0000.0,0008.09,0004.64,0003.99
2022-07-16 09:49:00,,0831.0,4.99,0.00,30.8,27.8,00.0,39.3,32.1,34.9,0000.0,0008.13,0004.67,0003.99
2022-07-16 09:50:00,,0831.0,5.01,0.00,30.7,27.6,00.0,39.3,32.0,35.1,0000.0,0008.07,0004.64,0004.00
2022-07-16 09:51:00,,0831.0,4.99,0.00,30.7,27.7,00.0,39.2,31.9,35.2,0000.0,0008.15,0004.62,0004.01
2022-07-16 09:52:00,,0831.0,5.00,0.00,30.9,27.8,00.0,39.2,32.0,34.7,0000.0,0008.32,0004.64,0004.00
2022-07-16 09:53:00,,0831.1,4.99,0.00,31.0,27.9,00.0,39.2,32.1,34.5,0000.0,0008.37,0004.65,0004.00
2022-07-16 09:54:00,,0831.1,5.01,0.00,31.1,28.0,00.0,39.2,32.0,34.4,0000.0,0008.37,0004.65,0004.01
2022-07-16 09:55:00,,0831.0,5.01,0.00,31.1,28.2,00.0,39.3,32.0,34.3,0000.0,0008.26,0004.67,0004.05
2022-07-16 09:56:00,,0831.0,5.00,0.00,31.1,28.3,00.0,39.3,32.0,34.3,0000.0,0008.28,0004.69,0004.08
2022-07-16 09:57:00,,0831.0,5.00,0.00,31.1,28.4,00.0,39.3,32.1,34.4,0000.0,0008.33,0004.72,0004.12
2022-07-16 09:58:00,,0830.9,5.00,0.00,31.1,28.5,00.0,39.4,32.1,34.6,0000.0,0008.36,0004.76,0004.16
2022-07-16 09:59:00,,0830.9,5.00,0.00,31.1,28.6,00.0,39.4,32.1,34.6,0000.0,0008.47,0004.86,0004.23
